[[{"header":{"parameterUnit":"m.s-1","parameterCategory":1,"la1":30.2991,"la2":30.254,"lo1":-89.0895,"lo2":-89.0444,"dy":0.0017,"dx":0.0017,"nx":28,"ny":28,"refTime":"2025-07-03T09:00:00:Z","depth":0,"parameterNumber":2,"parameterNumberName":"U-component_of_WINDS"},"data":[0,0,0,0,0,0,0,0,0,0,0,0,0,0,0,0,0,0,0,0,0,0,0,0,0,0,0,0,0,0,0,0,0,0,0,0,0,0,0,0,0,0,0,0,0,0,0,0,0,0,0,0,0,0,0,0,0,0,-0.6474,-0.6475,0,-0.6571,-0.6572,-0.6573,-0.658,-0.6579,-0.6578,-0.6577,-0.6678,-0.6682,-0.6686,0,0,0,0,0,0,0,0,0,0,0,0,0,-0.6299,-0.6302,-0.6474,-0.6475,-0.6477,-0.657,-0.6572,-0.6573,-0.6581,-0.6579,-0.6578,-0.6577,-0.6677,-0.6682,-0.6686,0,0,0,0,0,0,0,0,0,0,0,0,0,-0.6383,-0.6303,-0.6474,-0.6492,-0.6494,-0.657,-0.6572,-0.6573,-0.6581,-0.6579,-0.6578,-0.6576,-0.6676,-0.6681,-0.6687,-0.6752,0,0,-0.6703,-0.6706,0,0,0,0,0,0,0,0,-0.6379,-0.639,-0.6488,-0.649,-0.6493,-0.6562,-0.6547,-0.6634,-0.6581,-0.6548,-0.6577,-0.6575,-0.6641,-0.6649,-0.6671,-0.6757,-0.6761,-0.6704,-0.6707,-0.671,-0.6711,0,0,0,0,0,0,0,-0.6373,-0.6386,-0.6512,-0.6489,-0.6493,-0.6496,-0.6506,-0.6564,-0.6602,-0.6551,-0.6552,-0.6563,-0.6642,-0.6666,-0.6673,-0.6763,-0.6704,-0.6709,-0.6712,-0.6714,-0.691,-0.6912,0,0,0,0,0,0,-0.6363,-0.6381,-0.6509,-0.6515,-0.6431,-0.65,-0.6511,-0.6542,-0.6602,-0.6609,-0.6564,-0.6563,-0.6657,-0.6667,-0.6677,-0.676,-0.671,-0.6715,-0.6718,-0.6908,-0.691,-0.6913,0,0,0,0,0,0,-0.6359,-0.6375,-0.6505,-0.6448,-0.6465,-0.6505,-0.6538,-0.6544,-0.6568,-0.6612,-0.6619,-0.6581,-0.6656,-0.6669,-0.6734,-0.6763,-0.6717,-0.6722,-0.6906,-0.6909,-0.6912,-0.6924,0,0,0,0,0,0,-0.6354,-0.6373,-0.6398,-0.6449,-0.6468,-0.656,-0.654,-0.6547,-0.6577,-0.6576,-0.6629,-0.6636,-0.6656,-0.6726,-0.6739,-0.677,-0.6727,-0.6904,-0.6907,-0.6911,-0.6921,-0.6927,-0.6932,0,0,0,0,0,-0.6348,-0.6398,-0.6399,-0.6415,-0.65,-0.6561,-0.6573,-0.6593,-0.6579,-0.6605,-0.6633,-0.6635,-0.6757,-0.6732,-0.6748,-0.678,-0.6902,-0.6906,-0.691,-0.6919,-0.6926,-0.6932,0,0,0,0,0,0,-0.635,-0.6405,-0.6407,-0.6474,-0.6513,-0.6563,-0.6596,-0.66,-0.6644,-0.6642,-0.6666,-0.6678,-0.6743,-0.6768,-0.6739,-0.6848,-0.6828,-0.6836,-0.6829,-0.6836,-0.6842,-0.6835,-0.6731,0,0,0,0,0,-0.6358,-0.6402,-0.6448,-0.6503,-0.6523,-0.6556,-0.6583,-0.6596,-0.6638,-0.6654,-0.6688,-0.6729,-0.6777,-0.6808,-0.6854,-0.6925,-0.6937,-0.6955,-0.696,-0.6964,-0.6971,-0.7012,-0.7021,-0.6927,-0.6926,-0.6926,0,0,-0.6375,-0.6411,-0.6437,-0.6505,-0.6536,-0.6583,-0.657,-0.6619,-0.6655,-0.6662,-0.6726,-0.6751,-0.6799,-0.6867,-0.6899,-0.689,-0.7,-0.697,-0.6973,-0.6977,-0.7017,-0.7026,-0.7034,-0.6929,-0.6929,-0.6928,0,0,-0.6431,-0.6461,-0.6512,-0.6544,-0.6592,-0.6613,-0.6625,-0.6675,-0.6692,-0.6756,-0.6763,-0.6806,-0.6887,-0.6921,-0.6949,-0.7019,-0.7023,-0.7034,-0.7062,-0.7102,-0.7109,-0.7116,-0.7142,-0.7151,-0.704,-0.704,-0.704,0,-0.6447,-0.6517,-0.6537,-0.6587,-0.6617,-0.6625,-0.6677,-0.6707,-0.6768,-0.6789,-0.6778,-0.6882,-0.6914,-0.6992,-0.7009,-0.7031,-0.7046,-0.7028,-0.7106,-0.7113,-0.712,-0.7145,-0.7155,-0.7041,-0.7041,-0.7041,-0.7041,0,-0.6535,-0.6583,-0.6618,-0.6677,-0.671,-0.6761,-0.679,-0.6822,-0.6832,-0.6855,-0.6921,-0.696,-0.7015,-0.7034,-0.7045,-0.7114,-0.7107,-0.7101,-0.7082,-0.713,-0.7154,-0.7164,-0.7043,-0.7042,-0.7042,-0.7042,0,0,-0.6594,-0.6664,-0.6676,-0.6704,-0.6757,-0.6796,-0.6848,-0.6901,-0.6929,-0.6971,-0.7016,-0.7085,-0.708,-0.7112,-0.7126,-0.7161,-0.7216,-0.715,-0.7152,-0.7163,-0.7296,-0.7302,-0.7313,-0.7218,-0.722,-0.7221,-0.7293,0,-0.6657,-0.6749,-0.6769,-0.6848,-0.6894,-0.6903,-0.6948,-0.6987,-0.701,-0.7054,-0.708,-0.7129,-0.7118,-0.7137,-0.7172,-0.7201,-0.7243,-0.7196,-0.7261,-0.7263,-0.7251,-0.7325,-0.7331,-0.7396,-0.7302,-0.7304,-0.7305,0,-0.6743,-0.6787,-0.6871,-0.692,-0.694,-0.698,-0.7032,-0.7073,-0.7117,-0.7132,-0.7168,-0.7179,-0.7234,-0.7211,-0.7289,-0.7257,-0.7285,-0.7303,-0.7306,-0.7314,-0.7288,-0.7337,-0.7418,-0.7428,-0.732,-0.7319,-0.7318,0,-0.678,-0.686,-0.6921,-0.6944,-0.7002,-0.7031,-0.7057,-0.7099,-0.7131,-0.7176,-0.7197,-0.7248,-0.7277,-0.7317,-0.7341,-0.7322,-0.7418,-0.7397,-0.7433,-0.7433,-0.7454,-0.7452,-0.7542,-0.7469,-0.7469,-0.7469,-0.7469,0,-0.6849,-0.6901,-0.6939,-0.6976,-0.7035,-0.7058,-0.7115,-0.7141,-0.7179,-0.7223,-0.7234,-0.7275,-0.7304,-0.735,-0.737,-0.7432,-0.7445,-0.7459,-0.7464,-0.7459,-0.7457,-0.7479,-0.7475,-0.7472,-0.7471,-0.747,-0.747,0,-0.6901,-0.6928,-0.6996,-0.7046,-0.7059,-0.71,-0.7144,-0.7181,-0.7205,-0.726,-0.7275,-0.7312,-0.7366,-0.7395,-0.7463,-0.7476,-0.7547,-0.7548,-0.7532,-0.7534,-0.7569,-0.7566,-0.7677,-0.7693,-0.7608,-0.7609,-0.7609,0,-0.6944,-0.6984,-0.7038,-0.7068,-0.7094,-0.7142,-0.7174,-0.7199,-0.7232,-0.7286,-0.7318,-0.7373,-0.7418,-0.7504,-0.7538,-0.7591,-0.7595,-0.763,-0.7603,-0.7597,-0.7597,-0.7595,-0.76,-0.7635,-0.7636,-0.7637,-0.7637,0,-0.7018,-0.703,-0.7075,-0.7126,-0.7164,-0.7206,-0.7246,-0.7271,-0.7302,-0.7339,-0.7394,-0.7429,-0.7499,-0.7554,-0.7609,-0.7637,-0.7643,-0.7645,-0.7657,-0.7653,-0.7642,-0.765,-0.7546,-0.7643,-0.7642,-0.7642,-0.7642,-0.7641,-0.7068,-0.7104,-0.7148,-0.7199,-0.7233,-0.7271,-0.7309,-0.7337,-0.7384,-0.7442,-0.7454,-0.7513,-0.7558,-0.7633,-0.7662,-0.771,-0.7703,-0.7719,-0.7723,-0.7727,-0.773,-0.7633,-0.772,-0.7719,-0.7719,-0.7719,-0.7719,0,-0.7144,-0.7173,-0.7219,-0.7276,-0.7317,-0.7318,-0.7363,-0.7398,-0.7449,-0.749,-0.7535,-0.7599,-0.7653,-0.7691,-0.7746,-0.7777,-0.7781,-0.779,-0.7789,-0.7796,-0.7732,-0.7717,-0.7786,-0.7786,-0.7786,-0.7786,-0.7786,-0.7786,-0.7188,-0.725,-0.7267,-0.7347,-0.7376,-0.7433,-0.7459,-0.7495,-0.7528,-0.76,-0.7644,-0.7668,-0.7709,-0.7767,-0.7817,-0.7827,-0.7847,-0.7857,-0.7867,-0.7807,-0.78,-0.7793,-0.778,-0.7861,-0.7861,-0.7928,-0.7928,-0.7929]},{"header":{"parameterUnit":"m.s-1","parameterCategory":1,"la1":30.2991,"la2":30.254,"lo1":-89.0895,"lo2":-89.0444,"dy":0.0017,"dx":0.0017,"nx":28,"ny":28,"refTime":"2025-07-03T09:00:00:Z","depth":0,"parameterNumber":3,"parameterNumberName":"V-component_of_WINDS"},"data":[0,0,0,0,0,0,0,0,0,0,0,0,0,0,0,0,0,0,0,0,0,0,0,0,0,0,0,0,0,0,0,0,0,0,0,0,0,0,0,0,0,0,0,0,0,0,0,0,0,0,0,0,0,0,0,0,0,0,-3.2655,-3.2655,0,-3.2638,-3.2638,-3.2638,-3.2543,-3.2541,-3.2539,-3.2536,-3.2521,-3.2523,-3.2524,0,0,0,0,0,0,0,0,0,0,0,0,0,-3.2605,-3.2606,-3.2655,-3.2655,-3.2654,-3.2638,-3.2638,-3.2638,-3.2544,-3.2541,-3.2538,-3.2535,-3.2521,-3.2523,-3.2525,0,0,0,0,0,0,0,0,0,0,0,0,0,-3.2611,-3.2607,-3.2655,-3.2605,-3.2601,-3.2638,-3.2638,-3.2638,-3.2544,-3.2541,-3.2537,-3.2534,-3.252,-3.2522,-3.2525,-3.2609,0,0,-3.2533,-3.2534,0,0,0,0,0,0,0,0,-3.2611,-3.2613,-3.2613,-3.2609,-3.2604,-3.2589,-3.2615,-3.2628,-3.2545,-3.2566,-3.2536,-3.2532,-3.2547,-3.2547,-3.2551,-3.2609,-3.2608,-3.2533,-3.2535,-3.2536,-3.2536,0,0,0,0,0,0,0,-3.2611,-3.2613,-3.2648,-3.2613,-3.2607,-3.2584,-3.2581,-3.2617,-3.2576,-3.2564,-3.2557,-3.2556,-3.2543,-3.2549,-3.255,-3.2608,-3.2533,-3.2535,-3.2537,-3.2538,-3.2732,-3.2736,0,0,0,0,0,0,-3.2617,-3.2614,-3.2649,-3.2648,-3.2599,-3.2588,-3.2585,-3.2597,-3.2575,-3.2568,-3.2559,-3.2552,-3.2546,-3.2547,-3.2549,-3.2646,-3.2536,-3.2538,-3.2539,-3.2729,-3.2733,-3.2737,0,0,0,0,0,0,-3.2616,-3.2621,-3.2649,-3.2629,-3.2631,-3.2592,-3.2607,-3.2599,-3.2604,-3.2571,-3.2564,-3.2572,-3.2544,-3.2546,-3.2595,-3.2644,-3.2539,-3.2542,-3.2725,-3.273,-3.2735,-3.2841,0,0,0,0,0,0,-3.2615,-3.2622,-3.2653,-3.263,-3.2632,-3.2695,-3.261,-3.2601,-3.2609,-3.2599,-3.2582,-3.2576,-3.2541,-3.2591,-3.2597,-3.2646,-3.2544,-3.272,-3.2727,-3.2733,-3.2833,-3.2849,-3.2863,0,0,0,0,0,-3.2614,-3.2684,-3.2655,-3.266,-3.2671,-3.2698,-3.2699,-3.2658,-3.2613,-3.2645,-3.2623,-3.2576,-3.2638,-3.2597,-3.2603,-3.2653,-3.2717,-3.2725,-3.2733,-3.2826,-3.2846,-3.2863,0,0,0,0,0,0,-3.2715,-3.268,-3.2648,-3.2713,-3.2709,-3.2682,-3.2721,-3.2681,-3.269,-3.2681,-3.2629,-3.2626,-3.2683,-3.2673,-3.2628,-3.2733,-3.2669,-3.2679,-3.2738,-3.2756,-3.2771,-3.2773,-3.2546,0,0,0,0,0,-3.2744,-3.2769,-3.2738,-3.2798,-3.2798,-3.276,-3.277,-3.2738,-3.2733,-3.2731,-3.2713,-3.271,-3.2728,-3.2742,-3.2757,-3.2831,-3.2825,-3.2868,-3.2883,-3.2896,-3.2905,-3.2942,-3.2961,-3.2764,-3.2764,-3.2764,0,0,-3.2806,-3.279,-3.2809,-3.2818,-3.2811,-3.2838,-3.2759,-3.2791,-3.2811,-3.2736,-3.2781,-3.2768,-3.2761,-3.2823,-3.2849,-3.2816,-3.2958,-3.2906,-3.2917,-3.2919,-3.2953,-3.2971,-3.2988,-3.2769,-3.2768,-3.2768,0,0,-3.2932,-3.2923,-3.2971,-3.2966,-3.2957,-3.2931,-3.2943,-3.2922,-3.291,-3.2954,-3.2899,-3.2921,-3.2954,-3.2951,-3.2954,-3.3078,-3.3035,-3.3085,-3.3165,-3.3202,-3.3217,-3.3231,-3.3275,-3.3291,-3.3094,-3.3094,-3.3094,0,-3.301,-3.3048,-3.3001,-3.3037,-3.3042,-3.2975,-3.3023,-3.3021,-3.3018,-3.3023,-3.2986,-3.3026,-3.3016,-3.3076,-3.3106,-3.3111,-3.3122,-3.3087,-3.3219,-3.3232,-3.3244,-3.3285,-3.3302,-3.31,-3.31,-3.3099,-3.3098,0,-3.3144,-3.3171,-3.3211,-3.3209,-3.3219,-3.3261,-3.3221,-3.3236,-3.3204,-3.3182,-3.3228,-3.3214,-3.3225,-3.3237,-3.3205,-3.3292,-3.3272,-3.3228,-3.3162,-3.3269,-3.3307,-3.3323,-3.3109,-3.3107,-3.3105,-3.3103,0,0,-3.3333,-3.3304,-3.3319,-3.3317,-3.3302,-3.3322,-3.3361,-3.3371,-3.3385,-3.3385,-3.3416,-3.3445,-3.3404,-3.3408,-3.3375,-3.3408,-3.3507,-3.336,-3.3359,-3.3388,-3.3601,-3.3634,-3.3653,-3.3478,-3.3481,-3.3483,-3.3601,0,-3.3454,-3.3518,-3.3477,-3.3547,-3.3572,-3.3508,-3.3542,-3.3536,-3.3517,-3.3535,-3.3513,-3.3535,-3.3479,-3.348,-3.351,-3.3489,-3.3549,-3.348,-3.3507,-3.3509,-3.3511,-3.3673,-3.3708,-3.3821,-3.3616,-3.3619,-3.362,0,-3.3603,-3.3608,-3.3681,-3.366,-3.3669,-3.37,-3.3705,-3.3723,-3.3715,-3.3699,-3.3703,-3.3662,-3.3698,-3.3634,-3.3684,-3.3638,-3.3646,-3.3638,-3.3641,-3.3642,-3.3571,-3.3678,-3.3855,-3.3872,-3.3643,-3.3642,-3.364,0,-3.3733,-3.3759,-3.3805,-3.3805,-3.3782,-3.3805,-3.3797,-3.3785,-3.3794,-3.3799,-3.3804,-3.3814,-3.3819,-3.3827,-3.3791,-3.3747,-3.3845,-3.3778,-3.3833,-3.3834,-3.3856,-3.3856,-3.4038,-3.3863,-3.3863,-3.3862,-3.3862,0,-3.3872,-3.3919,-3.3863,-3.3892,-3.3943,-3.3895,-3.3947,-3.3932,-3.3922,-3.3947,-3.3893,-3.3917,-3.3867,-3.3887,-3.3858,-3.3904,-3.3907,-3.3894,-3.3886,-3.3899,-3.3901,-3.3904,-3.3896,-3.3867,-3.3866,-3.3865,-3.3864,0,-3.4026,-3.3991,-3.4038,-3.4011,-3.4006,-3.4044,-3.4022,-3.4047,-3.4024,-3.4056,-3.4061,-3.4024,-3.4045,-3.4008,-3.4024,-3.4005,-3.4069,-3.4049,-3.4071,-3.4065,-3.4122,-3.4117,-3.4313,-3.4336,-3.4147,-3.4148,-3.415,0,-3.4117,-3.4152,-3.4129,-3.4141,-3.4135,-3.4156,-3.4164,-3.4118,-3.4129,-3.4122,-3.4148,-3.4164,-3.4174,-3.4209,-3.4184,-3.4196,-3.4176,-3.4243,-3.4177,-3.4189,-3.4176,-3.4175,-3.4178,-3.4257,-3.4259,-3.4261,-3.4263,0,-3.4282,-3.4262,-3.4276,-3.4283,-3.4293,-3.4297,-3.4297,-3.431,-3.4262,-3.4276,-3.4296,-3.4303,-3.4319,-3.4335,-3.4341,-3.4332,-3.429,-3.4284,-3.4297,-3.431,-3.4322,-3.4316,-3.4108,-3.4279,-3.4278,-3.4276,-3.4275,-3.4275,-3.4407,-3.4434,-3.4422,-3.4438,-3.4433,-3.4434,-3.4456,-3.4435,-3.445,-3.4459,-3.4431,-3.4457,-3.4448,-3.4451,-3.4447,-3.4467,-3.4437,-3.4456,-3.4461,-3.4466,-3.4475,-3.4319,-3.4468,-3.4467,-3.4467,-3.4466,-3.4466,0,-3.4569,-3.4557,-3.4573,-3.4573,-3.4586,-3.4544,-3.4541,-3.4555,-3.4578,-3.4573,-3.4583,-3.4605,-3.4621,-3.4597,-3.4608,-3.4628,-3.4609,-3.4633,-3.4631,-3.463,-3.4502,-3.4489,-3.4648,-3.4648,-3.4648,-3.4648,-3.4648,-3.4648,-3.4654,-3.4698,-3.4677,-3.4718,-3.4706,-3.473,-3.4732,-3.4733,-3.4728,-3.4755,-3.4767,-3.4751,-3.4738,-3.4748,-3.476,-3.4752,-3.4759,-3.479,-3.4776,-3.4657,-3.4639,-3.4622,-3.4609,-3.4792,-3.4792,-3.4902,-3.4903,-3.4904]}]]